• în Republica Moldova
  • Lista ţărilor
  • Pe 7 zile
  • Temperatura apei
  • Hartă satelitară
  • Meteo pe hartă
  • Widget-uri
  • user-avatar
    Intrare

    Meteo pe oră la Drelow

    Astăzi, 18 Iunie, Luni

    Timp Temperatura Precipitaţii Vânt Presiune Umiditate
    00:00 +19°C° 0 mm 1 m/s 749 mmHg 67%
    01:00 +19°C° 0 mm 1 m/s 749 mmHg 68%
    02:00 +20°C° 0 mm 1 m/s 748 mmHg 70%
    03:00 +19°C° 0 mm 1 m/s 748 mmHg 72%
    04:00 +19°C° 0 mm 1 m/s 748 mmHg 74%
    05:00 +19°C° 0 mm 1 m/s 748 mmHg 77%
    06:00 +20°C° 0 mm 1 m/s 748 mmHg 75%
    07:00 +21°C° 0 mm 1 m/s 749 mmHg 74%
    08:00 +22°C° 0 mm 1 m/s 749 mmHg 73%
    09:00 +23°C° 0 mm 1 m/s 749 mmHg 68%
    10:00 +24°C° 0 mm 2 m/s 749 mmHg 63%
    11:00 +25°C° 0 mm 2 m/s 749 mmHg 58%
    12:00 +26°C° 0 mm 2 m/s 749 mmHg 54%
    13:00 +27°C° 0 mm 2 m/s 749 mmHg 50%
    14:00 +28°C° 0 mm 2 m/s 749 mmHg 46%
    15:00 +28°C° 0,1 mm 2 m/s 749 mmHg 48%
    16:00 +28°C° 0,1 mm 1 m/s 748 mmHg 49%
    17:00 +28°C° 0,1 mm 1 m/s 748 mmHg 51%
    18:00 +27°C° 0 mm 1 m/s 748 mmHg 56%
    19:00 +26°C° 0 mm 1 m/s 748 mmHg 62%
    20:00 +25°C° 0 mm 1 m/s 749 mmHg 67%
    21:00 +23°C° 0,3 mm 1 m/s 749 mmHg 72%
    22:00 +21°C° 0,3 mm 2 m/s 749 mmHg 77%
    23:00 +20°C° 0,3 mm 2 m/s 749 mmHg 82%

    Mâine, 19 Iunie, Marţi

    Timp Temperatura Precipitaţii Vânt Presiune Umiditate
    00:00 +19°C° 0 mm 2 m/s 750 mmHg 85%
    01:00 +18°C° 0 mm 2 m/s 750 mmHg 88%
    02:00 +17°C° 0 mm 2 m/s 750 mmHg 91%
    03:00 +17°C° 0 mm 2 m/s 750 mmHg 91%
    04:00 +17°C° 0 mm 2 m/s 750 mmHg 91%
    05:00 +17°C° 0 mm 2 m/s 750 mmHg 91%
    06:00 +18°C° 0 mm 2 m/s 751 mmHg 85%
    07:00 +20°C° 0 mm 2 m/s 751 mmHg 79%
    08:00 +21°C° 0 mm 2 m/s 751 mmHg 74%
    09:00 +24°C° 0,1 mm 2 m/s 751 mmHg 68%
    10:00 +25°C° 0,1 mm 2 m/s 751 mmHg 63%
    11:00 +27°C° 0,1 mm 3 m/s 751 mmHg 58%
    12:00 +27°C° 0,1 mm 3 m/s 751 mmHg 56%
    13:00 +27°C° 0,1 mm 3 m/s 751 mmHg 54%
    14:00 +28°C° 0,1 mm 4 m/s 751 mmHg 52%
    15:00 +28°C° 0 mm 4 m/s 751 mmHg 52%
    16:00 +28°C° 0 mm 4 m/s 751 mmHg 51%
    17:00 +28°C° 0 mm 4 m/s 751 mmHg 50%
    18:00 +26°C° 0 mm 3 m/s 751 mmHg 56%
    19:00 +25°C° 0 mm 3 m/s 751 mmHg 62%
    20:00 +24°C° 0 mm 2 m/s 751 mmHg 67%
    21:00 +21°C° 0 mm 2 m/s 751 mmHg 71%
    22:00 +20°C° 0 mm 2 m/s 752 mmHg 75%
    23:00 +19°C° 0 mm 2 m/s 752 mmHg 79%

    Poimâine, 20 Iunie, Miercuri

    Timp Temperatura Precipitaţii Vânt Presiune Umiditate
    00:00 +18°C° 0 mm 2 m/s 752 mmHg 81%
    01:00 +18°C° 0 mm 2 m/s 752 mmHg 84%
    02:00 +18°C° 0 mm 1 m/s 752 mmHg 86%
    03:00 +18°C° 0 mm 1 m/s 752 mmHg 87%
    04:00 +18°C° 0 mm 1 m/s 753 mmHg 88%
    05:00 +18°C° 0 mm 1 m/s 753 mmHg 89%
    06:00 +19°C° 0 mm 1 m/s 753 mmHg 82%
    07:00 +20°C° 0 mm 2 m/s 753 mmHg 75%
    08:00 +23°C° 0 mm 2 m/s 753 mmHg 69%
    09:00 +24°C° 0 mm 2 m/s 753 mmHg 64%
    10:00 +25°C° 0 mm 2 m/s 753 mmHg 60%
    11:00 +26°C° 0 mm 3 m/s 753 mmHg 55%
    12:00 +26°C° 0 mm 3 m/s 753 mmHg 55%
    13:00 +27°C° 0 mm 3 m/s 753 mmHg 55%
    14:00 +27°C° 0 mm 3 m/s 753 mmHg 55%
    15:00 +27°C° 0 mm 3 m/s 753 mmHg 54%
    16:00 +27°C° 0 mm 3 m/s 752 mmHg 53%
    17:00 +27°C° 0 mm 2 m/s 752 mmHg 53%
    18:00 +26°C° 0 mm 2 m/s 752 mmHg 57%
    19:00 +25°C° 0 mm 1 m/s 752 mmHg 61%
    20:00 +24°C° 0 mm 1 m/s 752 mmHg 65%
    21:00 +23°C° 0 mm 1 m/s 752 mmHg 66%
    22:00 +21°C° 0 mm 1 m/s 752 mmHg 68%
    23:00 +20°C° 0 mm 1 m/s 752 mmHg 69%

    21 Iunie, Joi

    Timp Temperatura Precipitaţii Vânt Presiune Umiditate
    00:00 +19°C° 0 mm 1 m/s 752 mmHg 70%
    01:00 +19°C° 0 mm 1 m/s 751 mmHg 71%
    02:00 +16°C° 0 mm 0 m/s 751 mmHg 72%
    03:00 +18°C° 0 mm 1 m/s 751 mmHg 74%
    04:00 +18°C° 0 mm 1 m/s 751 mmHg 75%
    05:00 +18°C° 0 mm 1 m/s 750 mmHg 76%
    06:00 +20°C° 0 mm 1 m/s 750 mmHg 72%
    07:00 +21°C° 0 mm 2 m/s 750 mmHg 69%
    08:00 +24°C° 0 mm 2 m/s 750 mmHg 65%
    09:00 +26°C° 0 mm 3 m/s 749 mmHg 62%
    10:00 +27°C° 0 mm 3 m/s 749 mmHg 58%
    11:00 +28°C° 0 mm 4 m/s 748 mmHg 55%
    12:00 +29°C° 0,1 mm 4 m/s 747 mmHg 54%
    13:00 +29°C° 0,1 mm 4 m/s 747 mmHg 53%
    14:00 +30°C° 0,1 mm 4 m/s 746 mmHg 52%
    15:00 +30°C° 0,2 mm 4 m/s 745 mmHg 55%
    16:00 +30°C° 0,2 mm 4 m/s 744 mmHg 57%
    17:00 +29°C° 0,2 mm 5 m/s 743 mmHg 60%
    18:00 +28°C° 0,6 mm 4 m/s 743 mmHg 67%
    19:00 +27°C° 0,6 mm 4 m/s 742 mmHg 74%
    20:00 +25°C° 0,6 mm 4 m/s 742 mmHg 82%
    21:00 +25°C° 0,9 mm 4 m/s 742 mmHg 84%
    22:00 +23°C° 0,9 mm 4 m/s 741 mmHg 86%
    23:00 +22°C° 0,9 mm 4 m/s 741 mmHg 88%

    22 Iunie, Vineri

    Timp Temperatura Precipitaţii Vânt Presiune Umiditate
    00:00 +21°C° 0,2 mm 5 m/s 742 mmHg 89%
    01:00 +20°C° 0,2 mm 6 m/s 742 mmHg 90%
    02:00 +19°C° 0,2 mm 6 m/s 742 mmHg 92%
    03:00 +17°C° 0 mm 6 m/s 743 mmHg 90%
    04:00 +15°C° 0 mm 6 m/s 743 mmHg 89%
    05:00 +14°C° 0 mm 5 m/s 744 mmHg 88%
    06:00 +14°C° 0 mm 5 m/s 744 mmHg 82%
    07:00 +14°C° 0 mm 5 m/s 745 mmHg 76%
    08:00 +14°C° 0 mm 5 m/s 745 mmHg 71%
    09:00 +15°C° 0 mm 5 m/s 746 mmHg 65%
    10:00 +16°C° 0 mm 6 m/s 746 mmHg 60%
    11:00 +17°C° 0 mm 6 m/s 746 mmHg 54%
    12:00 +17°C° 0 mm 6 m/s 746 mmHg 52%
    13:00 +19°C° 0 mm 6 m/s 746 mmHg 49%
    14:00 +18°C° 0 mm 7 m/s 746 mmHg 47%
    15:00 +19°C° 0 mm 6 m/s 746 mmHg 48%
    16:00 +17°C° 0 mm 6 m/s 746 mmHg 49%
    17:00 +16°C° 0 mm 5 m/s 746 mmHg 50%
    18:00 +17°C° 0 mm 4 m/s 746 mmHg 52%
    19:00 +15°C° 0 mm 4 m/s 746 mmHg 55%
    20:00 +14°C° 0 mm 3 m/s 746 mmHg 58%
    21:00 +14°C° 0 mm 3 m/s 746 mmHg 58%
    22:00 +13°C° 0 mm 3 m/s 746 mmHg 58%
    23:00 +12°C° 0 mm 3 m/s 746 mmHg 58%

    23 Iunie, Sâmbătă

    Timp Temperatura Precipitaţii Vânt Presiune Umiditate
    00:00 +11°C° 0 mm 3 m/s 746 mmHg 62%
    01:00 +11°C° 0 mm 3 m/s 746 mmHg 65%
    02:00 +10°C° 0 mm 3 m/s 746 mmHg 69%
    03:00 +9°C° 0 mm 3 m/s 747 mmHg 73%
    04:00 +9°C° 0 mm 3 m/s 747 mmHg 77%
    05:00 +8°C° 0 mm 3 m/s 747 mmHg 81%
    06:00 +10°C° 0 mm 3 m/s 747 mmHg 77%
    07:00 +12°C° 0 mm 3 m/s 747 mmHg 72%
    08:00 +14°C° 0 mm 4 m/s 747 mmHg 68%
    09:00 +14°C° 0,4 mm 4 m/s 747 mmHg 68%
    10:00 +15°C° 0,4 mm 4 m/s 747 mmHg 68%
    11:00 +17°C° 0,4 mm 4 m/s 747 mmHg 68%
    12:00 +17°C° 0,8 mm 4 m/s 747 mmHg 66%
    13:00 +18°C° 0,8 mm 4 m/s 747 mmHg 64%
    14:00 +19°C° 0,8 mm 4 m/s 747 mmHg 63%
    15:00 +19°C° 0,4 mm 4 m/s 747 mmHg 60%
    16:00 +19°C° 0,4 mm 5 m/s 747 mmHg 58%
    17:00 +19°C° 0,4 mm 5 m/s 747 mmHg 56%
    18:00 +17°C° 0,2 mm 5 m/s 747 mmHg 63%
    19:00 +15°C° 0,2 mm 4 m/s 747 mmHg 71%
    20:00 +14°C° 0,2 mm 3 m/s 747 mmHg 78%
    21:00 +13°C° 0 mm 3 m/s 748 mmHg 82%
    22:00 +12°C° 0 mm 3 m/s 748 mmHg 85%
    23:00 +11°C° 0 mm 3 m/s 748 mmHg 89%
    Arată mai mult